Flag for Bahamas Weather past 2 weeks in Nassau, Bahamas

Now
68 °F

Rain showers. Passing clouds.


Feels Like: 68 °F
Forecast: 66 / 73 °F
Wind: 10 mph from Northeast

Location: Nassau Airport

Current Time: Jan 31, 2015 at 5:30:36 AM

Latest Report: Jan 31, 2015 at 5:00 AM


Visibility: N/A

Pressure: 30.11 "Hg

Humidity: 69%

Dew point: 57 °F

Location of NassauLocation

Historic Weather in Nassau — Graph

°F

Nassau temperature yesterday

Maximum temperature yesterday: 73 °F (at 10:00 AM)
Minimum temperature yesterday: 55 °F (at 7:00 AM)
Average temperature yesterday: 67 °F

Past Weeks' High & Low Weather Summary

 TemperatureHumidityPressure
High84 °F (Jan 24, 1:00 PM)100% (Jan 18, 1:00 PM)30.25 "Hg (Jan 18, 1:00 PM)
Low55 °F (Jan 30, 7:00 AM)28% (Jan 18, 2:00 PM)29.86 "Hg (Jan 26, 4:00 PM)
Average71 °F68%30.07 "Hg
* Reported Jan 16 4:00 AM — Jan 31 4:00 AM, Nassau, Weather by CustomWeather, © 2014

Note: Actual official high and low records may vary slightly from our data, if they occured in-between our weather recording intervals... More about our weather records

Advertising

Nassau weather history for previous 24 hours

 ConditionsComfort  
Time TempWeatherWind HumidityBarometerVisibility
4:00 AM
Jan 31
70 °FSprinkles. Passing clouds.12 mph78%30.12 "HgN/A
3:00 AM70 °FPassing clouds.6 mph64%30.11 "HgN/A
2:00 AM68 °FPassing clouds.3 mph60%30.12 "HgN/A
1:00 AM64 °FPassing clouds.3 mph78%30.11 "HgN/A
12:00 AM68 °FPassing clouds.No wind64%30.14 "HgN/A
11:00 PM
Jan 30
68 °FPassing clouds.No wind60%30.16 "HgN/A
10:00 PM68 °FPassing clouds.5 mph73%30.16 "HgN/A
9:00 PM68 °FPassing clouds.5 mph64%30.16 "HgN/A
8:00 PM68 °FPassing clouds.6 mph64%30.16 "HgN/A
7:00 PM68 °FPassing clouds.3 mph69%30.15 "HgN/A
6:00 PM70 °FPartly cloudy.3 mph60%30.14 "HgN/A
5:00 PM70 °FBroken clouds.7 mph64%30.14 "HgN/A
4:00 PM72 °FScattered clouds.7 mph65%30.13 "HgN/A
3:00 PM72 °FScattered clouds.8 mph57%30.12 "HgN/A
1:00 PM72 °FPartly sunny.7 mph65%30.15 "HgN/A
11:00 AM72 °FBroken clouds.3 mph53%30.21 "HgN/A
10:00 AM73 °FBroken clouds.24 mph53%30.17 "HgN/A
9:00 AMN/ABroken clouds.No windN/A30.19 "HgN/A
8:00 AM61 °FPassing clouds.No wind72%30.17 "HgN/A
7:00 AM55 °FPassing clouds.No wind88%30.14 "HgN/A
6:00 AM57 °FPassing clouds.No wind77%30.13 "HgN/A
Weather by CustomWeather, © 2014

See weather overviewHow to use our weather pages